Probability
0 1 5 11 12 10 7 4 3 2 2 2 1 0 2 5 7 8 7 5 4 3 1 0 0 0 0 0 0 0 0 0 1 0 0 0 0 0 0 0 1 1 2
1 2 6 10 11 10 8 6 4 2 1 1 0 1 2 4 6 7 7 5 3 3 2 1 0 0 0 0 0 0 0 0 1 0 0 0 0 0 0 0 1 2 2
4 4 6 10 11 11 10 9 6 4 1 0 0 1 2 4 5 7 7 5 4 3 2 1 0 0 0 0 0 0 0 0 0 0 0 0 0 1 2 2 2 2 2
7 6 7 11 13 12 12 11 9 6 2 1 1 2 3 4 5 6 6 5 4 3 2 1 0 0 0 0 0 0 0 0 1 2 3 1 1 3 4 4 3 2 2
10 10 11 14 14 13 13 12 11 9 5 3 4 3 3 5 6 6 5 5 4 3 1 0 0 0 0 0 0 0 0 1 4 6 6 2 2 4 5 3 3 2 2
13 14 16 18 17 14 13 12 12 11 8 6 5 5 4 5 6 5 4 4 4 3 1 0 0 0 0 0 0 0 0 2 6 8 6 3 2 4 5 4 3 2 2
17 17 20 22 22 18 16 15 15 14 11 7 6 6 5 5 5 5 5 4 3 2 0 0 0 0 0 1 2 2 2 3 4 5 4 2 2 3 5 6 4 2 1
21 20 21 24 25 24 22 21 21 18 14 10 7 6 5 5 5 5 4 3 1 0 0 0 0 0 1 2 3 4 4 2 2 2 1 1 2 5 6 7 5 2 1
22 21 21 22 24 25 24 23 22 21 18 15 11 7 5 4 4 5 4 2 1 1 1 1 1 1 2 2 3 3 3 1 0 0 0 1 4 7 8 7 6 3 2
17 17 18 19 20 20 19 17 18 20 21 20 17 11 6 4 4 4 4 3 3 3 2 1 2 3 3 2 2 1 1 1 1 1 0 1 4 6 8 8 7 6 5
14 13 15 17 17 15 13 14 15 17 19 19 15 10 7 4 3 3 3 3 4 4 3 2 2 3 4 3 2 1 1 2 2 1 1 2 4 5 7 7 7 6 6
15 14 13 15 15 14 14 15 15 15 14 13 10 7 4 3 2 2 1 1 3 3 2 1 1 2 3 3 3 3 3 3 2 1 1 3 4 4 5 6 7 7 6
18 16 14 14 15 15 16 16 14 12 11 8 6 5 3 1 1 1 1 1 2 2 1 1 1 1 1 1 3 3 3 3 2 1 2 5 6 5 5 5 8 10 9
22 20 17 14 14 15 15 13 11 9 8 5 5 4 2 0 0 0 1 3 3 2 0 0 1 1 0 1 2 2 3 3 3 1 2 7 10 8 6 5 8 11 12
27 26 22 18 15 15 13 10 7 6 5 4 4 4 2 0 0 0 1 3 3 2 1 0 0 0 0 0 1 1 1 2 3 2 2 6 11 11 7 5 6 9 11
32 33 30 24 20 19 16 11 8 5 5 5 5 5 4 2 2 2 1 2 2 2 1 0 0 0 0 0 0 0 0 1 2 1 1 3 8 9 7 6 7 8 9
35 37 35 30 27 24 20 16 11 9 8 9 9 9 9 8 6 4 2 1 1 1 0 0 0 0 0 0 0 0 0 1 1 1 0 1 3 6 7 8 9 11 11
36 39 38 34 32 30 26 21 17 15 15 14 14 14 15 13 9 6 4 3 2 1 0 0 0 0 0 0 0 0 0 0 0 0 0 0 1 3 5 8 10 11 11
36 38 38 35 34 32 28 26 23 20 20 19 16 15 15 13 10 7 5 4 3 1 0 0 0 0 0 0 0 0 0 0 0 0 0 0 0 1 2 4 7 8 8
34 35 36 35 33 31 30 29 27 23 21 19 16 15 13 11 9 7 6 5 3 2 1 0 0 0 0 0 0 0 0 0 0 0 0 0 0 0 0 1 3 4 5
33 33 33 32 31 30 30 30 27 23 19 17 16 14 11 10 9 7 5 4 3 3 1 1 0 0 0 0 0 0 0 0 0 0 0 0 0 0 0 0 0 1 2
30 30 29 29 29 29 29 28 25 21 18 17 15 13 11 9 8 7 5 4 3 3 3 2 1 0 0 0 0 0 0 0 0 0 0 0 0 0 0 0 0 0 0
26 26 27 28 29 29 28 28 24 20 18 18 15 13 11 9 8 8 7 5 3 3 3 3 1 0 0 0 0 0 0 0 0 0 0 0 0 0 0 0 0 0 0
25 26 27 28 29 29 28 26 24 21 19 17 15 12 10 8 8 7 7 5 4 3 3 3 2 1 1 0 0 0 0 0 0 0 0 0 0 0 0 0 0 0 0
26 27 27 27 27 28 27 24 23 21 18 15 13 11 8 7 7 7 6 6 4 3 3 3 3 3 2 1 0 0 0 0 0 0 0 0 0 0 0 0 0 0 0
28 27 27 26 26 26 25 23 23 21 17 15 13 10 7 6 6 6 6 6 5 4 3 3 3 3 3 2 1 0 0 0 0 0 0 0 0 0 0 0 0 0 0
Wind_Speed
7 8 14 14 14 14 14 14 14 14 13 13 13 13 13 13 12 12 12 11 10 9 9 8 8 7 7 7 7 7 7 7 7 7 8 8 8 8 9 10 9 7 11
11 10 15 14 15 14 14 14 14 13 13 12 12 12 12 12 11 10 10 10 9 8 8 7 7 6 6 6 6 5 5 5 5 5 6 6 6 7 8 9 9 6 11
13 10 13 15 15 15 14 14 14 13 12 12 11 11 11 10 10 9 9 8 8 7 7 6 5 5 5 4 4 3 3 3 3 3 3 2 3 6 8 9 10 11 10
14 10 11 15 15 15 14 14 13 13 12 12 11 10 10 9 9 8 8 7 7 6 5 5 5 4 3 3 2 2 2 1 0 0 1 1 2 6 9 10 10 11 10
12 9 12 16 15 15 14 13 13 12 12 11 10 9 9 8 8 7 7 6 6 5 5 4 4 3 2 1 1 1 2 2 3 2 1 2 2 7 9 10 10 10 10
11 9 12 16 16 15 14 13 13 12 11 10 10 9 8 8 7 6 6 5 5 4 3 3 2 1 0 1 1 2 3 4 3 1 2 2 3 7 9 10 11 10 10
10 8 10 15 15 15 14 13 12 11 11 10 9 8 7 6 6 5 5 4 4 3 2 2 1 1 1 2 3 4 4 5 2 1 1 2 3 8 10 10 10 10 11
12 9 9 15 15 14 14 13 12 11 10 9 8 7 6 5 5 4 4 3 3 2 2 2 2 2 3 3 4 5 5 5 3 2 2 2 5 8 9 9 10 10 11
11 9 7 8 10 13 13 12 11 10 9 9 8 6 6 5 5 4 4 3 3 2 3 3 3 3 4 5 5 6 6 5 2 1 2 1 5 8 10 9 9 10 11
8 8 6 6 5 6 7 11 11 10 9 8 7 6 6 5 4 4 3 3 3 3 3 3 3 4 4 5 6 6 6 4 1 1 1 2 5 8 8 9 10 10 11
8 6 6 6 5 5 5 8 8 9 8 7 5 5 4 2 1 2 2 3 3 4 4 4 4 5 5 5 6 6 4 1 1 1 1 3 5 7 7 8 9 10 11
9 7 6 6 6 5 5 4 3 4 4 3 2 2 2 1 1 2 3 4 4 4 4 5 5 5 4 2 4 4 1 1 1 2 2 4 6 7 7 8 9 10 11
9 8 7 7 6 5 3 4 2 2 2 2 2 2 2 1 1 1 1 2 2 3 2 3 3 2 2 2 2 2 2 2 1 2 3 5 6 7 8 8 9 10 11
9 8 7 7 6 5 4 4 3 2 2 2 2 2 2 1 0 1 1 1 1 1 1 1 1 2 2 2 2 2 3 2 2 2 3 6 7 8 8 8 8 8 9
9 9 8 7 7 6 5 4 4 3 3 3 2 2 3 2 1 1 1 0 1 1 1 1 1 2 3 3 2 3 2 3 3 2 2 6 7 7 8 8 8 7 8
9 9 8 8 7 7 5 4 3 3 3 3 2 3 3 2 2 1 1 1 1 1 1 1 1 2 2 2 3 3 2 2 2 2 2 3 5 6 7 8 7 8 8
8 7 7 7 6 6 6 4 3 3 3 2 2 2 3 2 2 1 1 0 1 1 1 1 2 1 2 2 3 3 2 1 1 2 2 2 3 5 7 6 6 7 7
7 7 7 7 6 6 5 4 3 3 3 2 2 2 2 2 2 2 1 0 1 1 1 1 1 1 2 2 2 2 2 1 2 2 2 2 2 2 4 5 5 6 6
8 8 7 6 6 6 5 3 3 3 3 2 2 2 2 2 2 2 1 0 1 1 1 1 1 1 1 2 2 2 1 1 2 2 2 2 2 2 2 3 4 5 5
6 6 6 6 5 5 4 3 2 2 2 2 2 2 2 2 2 2 1 0 1 1 1 1 1 2 1 2 2 2 2 2 1 1 2 2 2 2 2 2 1 2 3
6 6 6 5 5 4 3 3 3 2 2 1 1 1 2 1 2 2 1 1 1 1 1 1 1 2 1 1 1 2 3 2 1 1 1 1 1 1 1 1 1 1 1
6 6 5 5 5 5 4 3 3 3 2 1 1 1 1 1 1 1 1 0 1 1 2 2 1 1 2 2 1 1 2 4 3 2 2 1 2 2 1 1 0 1 1
6 7 6 6 5 5 4 3 3 3 2 2 1 0 0 1 1 1 1 1 1 1 1 1 1 1 1 2 1 2 1 2 3 3 2 2 2 1 1 1 1 1 1
7 7 6 5 5 4 5 5 5 3 2 2 1 1 0 1 1 1 1 2 1 1 1 1 1 0 1 1 1 0 1 2 1 2 3 2 2 1 1 1 1 1 0
6 6 5 5 4 4 5 5 5 4 2 2 2 2 1 0 0 1 1 1 1 1 1 1 1 1 0 0 1 1 1 0 1 1 3 3 3 2 2 1 1 1 1
5 5 5 6 4 4 4 5 5 5 4 3 2 2 1 0 1 1 1 1 0 0 0 1 1 1 1 0 1 0 1 1 1 1 2 2 3 3 2 2 1 1 1
Wind_Direction
149 153 144 134 128 124 121 117 113 110 106 104 101 100 99 99 100 101 103 104 104 105 104 103 102 100 99 98 97 97 102 108 112 117 124 130 132 133 135 136 132 130 131
146 149 142 136 131 129 126 123 120 116 113 110 107 105 104 104 105 104 104 104 105 106 106 105 103 102 100 99 99 99 103 110 117 120 121 124 134 138 143 141 138 139 137
137 143 141 138 134 133 131 128 125 122 120 117 113 111 109 108 108 108 108 108 107 107 107 105 103 100 97 96 96 95 95 103 114 119 117 111 143 147 148 146 142 142 142
138 142 144 142 138 136 134 132 131 129 127 124 120 117 116 113 111 110 111 111 111 112 111 106 102 95 91 88 81 67 54 42 3 106 110 203 198 159 152 151 149 148 148
137 141 146 144 141 138 137 136 136 135 133 130 127 125 122 119 117 116 116 116 115 116 117 113 107 100 91 81 49 11 349 337 321 320 261 241 220 179 168 161 158 156 156
136 141 147 144 142 140 139 139 139 139 137 134 133 131 129 126 125 125 125 125 125 127 129 126 121 118 97 348 328 322 320 319 319 298 264 226 197 188 177 171 167 166 166
135 138 145 144 144 144 143 142 142 141 139 137 136 136 135 134 135 135 136 139 143 147 150 154 164 215 270 296 305 308 312 318 315 267 233 228 215 198 183 180 177 177 177
137 139 143 147 148 147 147 146 145 143 142 140 139 141 142 140 145 148 150 158 164 174 191 203 225 257 275 287 294 301 307 315 322 309 252 225 216 201 193 188 190 191 189
136 138 140 146 148 148 147 146 145 143 142 141 141 148 153 156 165 165 171 178 186 207 226 233 246 265 278 283 289 295 302 312 317 285 264 221 202 197 199 194 198 200 198
135 141 141 138 137 142 148 152 150 147 146 145 148 156 160 170 176 177 192 207 216 230 241 249 259 270 278 285 290 292 294 304 291 268 248 229 213 204 200 196 202 203 205
140 144 143 142 138 140 146 155 153 149 147 146 151 155 154 166 183 200 223 228 238 247 252 261 270 274 277 287 294 299 296 273 258 240 225 236 227 217 208 207 209 208 210
153 154 150 147 148 148 155 141 146 147 145 143 149 152 151 158 189 221 246 245 253 259 265 266 273 279 275 275 290 300 284 258 253 230 221 225 230 230 226 220 220 218 218
155 154 153 154 155 154 144 142 151 143 143 147 151 157 159 157 219 256 250 262 265 270 280 284 284 277 268 261 267 271 257 247 240 238 240 237 232 235 233 225 225 223 222
149 153 153 155 153 154 147 152 154 153 159 167 174 164 155 158 211 247 232 239 246 265 261 274 284 283 282 277 268 265 267 250 234 232 246 247 234 230 233 228 228 230 230
152 157 157 155 155 154 154 163 160 167 171 175 175 179 171 171 197 209 240 239 255 257 253 271 286 295 293 288 277 267 265 255 240 235 255 252 238 230 232 233 230 232 234
161 161 156 156 157 151 154 156 160 170 171 169 176 181 178 173 169 167 199 223 265 267 268 259 277 285 285 288 288 281 273 262 244 245 252 258 249 241 238 239 239 237 239
164 154 152 155 150 147 148 151 153 159 159 166 175 178 175 167 160 153 136 332 296 301 319 324 324 318 313 313 304 295 279 263 249 250 247 248 258 253 247 243 240 239 244
156 150 152 155 149 148 146 145 140 142 147 159 164 164 166 161 145 131 125 269 309 349 346 317 327 323 318 312 301 292 284 270 270 263 253 251 252 262 252 249 251 247 245
156 153 149 146 152 152 146 142 138 140 141 143 134 136 145 134 129 125 143 258 348 23 359 331 353 307 300 310 288 279 282 273 271 278 270 265 258 246 250 258 252 244 243
150 147 144 143 149 145 136 125 115 109 119 123 127 138 136 124 122 121 128 33 41 32 359 359 338 321 279 284 301 312 300 282 282 276 280 287 275 258 245 241 254 251 246
155 149 148 146 151 144 139 144 143 148 143 124 128 125 125 119 117 113 99 51 48 38 344 348 348 341 329 346 15 341 324 322 323 296 309 318 323 307 271 225 222 247 270
157 156 153 151 158 157 160 159 154 145 143 140 135 96 102 104 98 117 109 97 60 51 10 3 21 8 339 14 75 30 341 338 339 341 341 343 350 358 5 5 16 236 244
166 168 168 165 163 158 146 121 106 88 72 72 72 84 111 112 93 94 112 110 79 75 18 353 20 72 339 336 63 130 129 275 313 323 327 340 347 356 343 321 296 259 230
181 170 161 159 153 151 145 138 140 141 148 173 165 168 160 116 115 98 105 106 92 71 35 352 26 55 115 333 332 3 183 191 211 309 315 318 322 321 309 299 297 292 266
164 152 149 145 147 148 141 144 140 140 153 142 123 121 103 340 94 113 108 100 86 71 34 351 355 7 98 173 272 301 337 341 184 199 288 309 319 300 291 285 283 268 247
130 131 135 139 145 146 142 141 146 150 153 145 146 146 147 31 9 36 105 97 122 127 15 316 333 340 315 282 266 238 207 225 240 211 242 279 293 294 300 295 279 263 251